Вернуться в каталог

DELTA 1 DEB

АктивенPO
NORAD 8084·DEBRIS·🇺🇸 United States

Запущен Jul 23, 1972 с Vandenberg Space Force Base

Loading…

Ближайшие Пролёты (ближайшие 24 часа)

TLE

СвежийSource: Space-Track

Эпоха: Sep 14, 2026, 03:30 UTC

1 08084U 72058DK  26257.14585190  .00000516  00000-0  32380-3 0  9998
2 08084  98.6383 328.9723 0538535 126.7872 238.3951 13.53336596633710

Отслеживайте DELTA 1 DEB в реальном времени с AllMySat

Download on the App Store